Regional Weather Roundup
Issued by NWS

Home | Current Version | Previous Version | Graphics & Text | Print | Product List | Glossary On
Versions: 1 2 3 4 5 6 7 8 9 10 11 12 13 14 15 16 17 18 19 20 21 22 23 24 25 26 27 28 29 30 31 32 33 34 35 36 37 38 39 40 41 42 43 44 45 46 47 48 49 50
244
ASUS43 KMKX 231100
RWRWI

WISCONSIN REGIONAL WEATHER ROUNDUP
NATIONAL WEATHER SERVICE MILWAUKEE/SULLIVAN WI
600 AM CDT WED AUG 23 2017

NOTE: "FAIR" INDICATES FEW OR NO CLOUDS BELOW 12,000 FEET WITH NO
SIGNIFICANT WEATHER AND/OR OBSTRUCTIONS TO VISIBILITY.

WIZ001-002-006>008-014>016-023>028-231200-
NORTHWEST WISCONSIN

CITY           SKY/WX    TMP DP  RH WIND       PRES   REMARKS
SUPERIOR ARPT    N/A     51  49  93 CALM      30.04R
ASHLAND        CLOUDY    52  51  97 S5        30.03R
HAYWARD        PTCLDY    45  43  93 CALM      30.05R
SIREN          CLEAR     49  48  95 CALM      30.06S
CUMBERLAND     CLEAR     50  48  93 NW6       30.06R
RICE LAKE      CLEAR     49  48  97 CALM      30.06S
CHETEK         CLEAR     52  50  93 CALM      30.05S
LADYSMITH      CLEAR     53  51  94 NW6       30.05S
EAU CLAIRE     NOT AVBL
MENOMONIE      CLEAR     54  50  87 W5        30.06R
NEW RICHMOND   CLEAR     50  49  95 CALM      30.07S
OSCEOLA        CLEAR     48  48 100 CALM      30.10S
$$

WIZ003>005-009-010-017-018-231200-
NORTH CENTRAL WISCONSIN

CITY           SKY/WX    TMP DP  RH WIND       PRES   REMARKS
MANITOWISH WTR CLOUDY    52  52 100 NW5       30.00S
ARBOR VITAE    MOCLDY    57  55  93 NW7       30.00S
WOODRUFF       MOCLDY    57  55  93 NW7       30.00S
RHINELANDER    MOCLDY    52  52 100 W8        30.01R
EAGLE RIVER    RAIN      54  53  97 W3        29.99R
LAND O LAKES   CLOUDY    55  52  90 N8        30.00S
PHILLIPS       CLEAR     48  48 100 CALM      30.02S
TOMAHAWK         N/A     45  44  97 CALM      30.02R FOG
MEDFORD        CLEAR     47  46  98 W3        30.03R
MERRILL        CLEAR     46  46 100 CALM      30.02R FOG
$$

WIZ029-030-035-036-043>047-231200-
CENTRAL WISCONSIN

CITY           SKY/WX    TMP DP  RH WIND       PRES   REMARKS
WAUSAU         PTCLDY    53  50  89 NW7       30.01R
MOSINEE        PTCLDY    50  48  93 W5        30.02S
MARSHFIELD     CLEAR     50  47  89 NW7       30.02S
STEVENS POINT  CLEAR     51  50  95 W6        30.02R
WAUPACA        CLEAR     55  51  85 W5        30.00S
WAUTOMA        CLEAR     52  49  89 W6        30.03R
WISC RAPIDS    CLEAR     51  48  89 NW5       30.04R
CAMP DOUGLAS   NOT AVBL
$$

WIZ011>013-019>022-031-037>040-048>050-231200-
NORTHEAST WISCONSIN

CITY           SKY/WX    TMP DP  RH WIND       PRES   REMARKS
ANTIGO         CLEAR     49  49 100 W7        30.00R
SHAWANO        CLEAR     55  51  87 W6        29.97S
OCONTO         CLEAR     53  51  92 NW3       29.95S
STURGEON BAY   CLEAR     58  54  86 NW9       29.97R
GREEN BAY      PTCLDY    52  52 100 W8        29.98R
MANITOWOC      NOT AVBL
APPLETON       PTCLDY    52  48  87 W9        29.97S
CLINTONVILLE   CLEAR     54  50  87 NW8       29.99R
OSHKOSH        CLEAR     54  49  83 W7        29.99R
$$

WIZ032>034-041-042-053>061-231200-
SOUTHWEST WISCONSIN

CITY           SKY/WX    TMP DP  RH WIND       PRES   REMARKS
LA CROSSE      CLEAR     56  53  90 SE3       30.06R
SPARTA         CLEAR     45  44  98 CALM      30.06R
VIROQUA        CLEAR     51  50  95 W5        30.06S
BOSCOBEL       CLEAR     52  50  93 SW3       30.07R
PRAIRIE DU CHI CLEAR     52  47  82 W3        30.08R
PLATTEVILLE    CLEAR     51  51 100 W5        30.07S
$$

WIZ056-057-062-063-064-067-068-231200-
SOUTH CENTRAL WISCONSIN

CITY           SKY/WX    TMP DP  RH WIND       PRES   REMARKS
REEDSBURG      CLEAR     50  50 100 CALM      30.04R
BARABOO/DELLS  CLEAR     54  48  81 W3        30.04R
LONE ROCK      NOT AVBL
MINERAL POINT  CLEAR     54  52  94 W3        30.07R
MADISON        CLEAR     55  51  86 NW3       30.03R
MIDDLETON      CLEAR     56  52  86 W9        30.04S
WATERTOWN      CLEAR     54  53  96 W3        30.01S
MONROE         CLEAR     54  48  82 W10       30.05R
JANESVILLE     CLEAR     54  54 100 W3        30.03R
$$

WIZ051-052-058>065-066-070>072-231200-
SOUTHEAST WISCONSIN

CITY           SKY/WX    TMP DP  RH WIND       PRES   REMARKS
MILWAUKEE      CLEAR     61  51  70 W8        30.00R
WAUKESHA       CLEAR     54  50  87 W10       30.02R
MILWAUKEE/TIMM PTCLDY    55  46  71 W8        30.01R
RACINE         CLEAR     57  52  83 W6        30.02R
KENOSHA        CLEAR     55  50  83 W7        30.01R
FOND DU LAC    CLEAR     56  48  74 W6        30.01R
SHEBOYGAN      CLEAR     56  53  90 W6        29.98R
WEST BEND      CLEAR     55  50  82 W7        30.00R
JUNEAU         CLEAR     54  49  85 CALM      30.03R
$$

LSZ147-162-231200-
LAKE SUPERIOR

STATION/POSITION TIME  TEMP    WIND        PRES    WAVE
                       AIR SEA DIR/SP/G            HT/PER
                 (UTC) (F)     (DEG/KT/KT) (MB)    (FT/S)
W MID LAKE BUOY  0950   59 60  360/  8/ 10 1014.7R   2/ 4
DEVILS ISLAND    1000   60     320/ 12/ 14 1015.9R
SAXON HARBOR     1030   55     190/  5/  7 1015.6S
$$

LMZ867-665-643>646-231200-
LAKE MICHIGAN

STATION/POSITION TIME  TEMP    WIND        PRES    WAVE
                       AIR SEA DIR/SP/G            HT/PER
                 (UTC) (F)     (DEG/KT/KT) (MB)    (FT/S)
S GREEN BAY BUOY 1030   61 70  280/ 16/ 19 1014.2R
N MID LAKE BUOY  0950   61 66  310/ 16/ 19 1012.5R   3/ 4
NORTHPORT PIER   1040   61     320/ 19/ 24 1013.2R
KEWAUNEE LAKESHO 1030   56     310/  4/  6 1013.4R
SHEBOYGAN LAKESH 1000   60     290/  9/ 11 1014.3S
PORT WASHINGTON  1040   60     290/  4/  8 1016.3R
ATWATER BUOY     0909   63 67  260/ 14/ 16 1015.3S
MILWAUKEE LAKESH 1030   61     280/ 10/ 12   N/A
S MID LAKE BUOY  0950   68 71  320/ 17/ 19 1014.4F   3/ 5
KENOSHA   LAKESH 1000   60     270/  9/ 14 1015.6
$$

TC  - TEMPERATURE IN CELSIUS
VSB - VISIBILITY IN STATUTE MILES
WCI - WIND CHILL INDEX
HX  - HEAT INDEX





USA.gov is the U.S. government's official web portal to all federal, state and local government web resources and services.